ДАННЫЕ О ПОГОДЕ

ВЧЕРА
Time Темп. Т росы. Влаж. Давл.
00:01 18.5 13.1 71 1017.5
00:22 18.2 13.3 73 1017.4
00:31 18.1 13.2 73 1017.2
00:41 18.1 13.4 74 1017.2
00:52 18 13.3 74 1017
01:02 17.9 13.4 75 1017
01:12 17.8 13.3 75 1017.1
01:21 17.8 13.3 75 1017
01:32 17.8 13.5 76 1017
01:42 17.8 13.5 76 1017
01:52 17.8 13.5 76 1016.8
02:02 17.7 13.4 76 1016.7
02:12 17.7 13.4 76 1016.7
02:22 17.6 13.3 76 1016.3
02:32 17.5 13.2 76 1016.2
02:43 17.5 13.2 76 1016.2
02:53 17.4 13.1 76 1016.2
03:02 17.4 13.1 76 1016
03:13 17.4 13.1 76 1015.9
03:23 17.3 13 76 1015.7
03:33 17.3 13 76 1015.7
03:43 17.2 12.9 76 1015.6
03:53 17.3 12.8 75 1015.5
04:03 17.3 12.8 75 1015.4
04:13 17.3 12.8 75 1015.2
04:23 17.2 12.7 75 1015
04:34 17.2 12.7 75 1014.9
04:43 17.2 12.5 74 1014.7
04:53 17.1 12.4 74 1014.7
05:04 17 12.3 74 1014.7
05:14 17 12.3 74 1014.7
05:24 17 12.3 74 1014.6
05:34 16.9 12.2 74 1014.5
05:44 16.8 12.1 74 1014.5
05:54 16.8 12.1 74 1014.5
06:04 16.8 12.1 74 1014.5
06:15 16.8 12.1 74 1014.5
06:24 16.8 12.1 74 1014.6
06:34 16.7 12 74 1014.3
06:44 16.8 12.1 74 1014.3
06:55 16.9 12.2 74 1014.5
07:05 16.9 12.2 74 1014.5
07:14 17 12.5 75 1014.5
07:25 17 12.3 74 1014.5
07:35 17.1 12.6 75 1014.5
07:45 17.1 12.6 75 1014.5
07:55 17.1 12.6 75 1014.6
08:05 17.2 12.5 74 1014.5
08:15 17.3 12.8 75 1014.6
08:25 17.3 13.2 77 1014.5
08:36 17.2 13.3 78 1014.5
08:46 17.2 13.3 78 1014.6
08:55 17.2 13.5 79 1014.5
09:05 17.3 13.8 80 1014.3
09:16 17.3 13.4 78 1014.3
09:26 17.5 13.8 79 1014.5
09:36 17.7 14 79 1014.6
09:46 17.8 13.9 78 1014.5
10:02 17.9 14 78 1014.7
10:12 17.9 13.8 77 1014.7
10:22 17.8 13.7 77 1014.6
10:28 17.8 13.5 76 1014.7
10:39 17.7 13.6 77 1014.8
10:49 17.6 13.7 78 1014.8
10:54 17.6 13.9 79 1014.7
11:04 17.6 13.7 78 1014.7
11:14 17.6 13.7 78 1014.5
11:29 17.5 14 80 1014.7
11:41 17.4 14.1 81 1014.7
11:51 17.5 14.2 81 1014.6
12:01 17.5 14.2 81 1014.6
12:07 17.6 14.3 81 1014.6
12:17 17.8 14.3 80 1014.5
12:27 18 14.5 80 1014.3
12:37 18.3 15 81 1014.2
12:47 18.5 15 80 1014.3
12:57 18.7 15 79 1014.3
13:07 18.8 14.7 77 1014.1
13:17 19 14.9 77 1014.1
13:27 19.2 14.9 76 1014
13:37 19.3 14.8 75 1014
13:47 19.5 15 75 1014
13:58 19.5 14.7 74 1013.9
14:07 19.5 14.7 74 1014
14:28 19.5 14.7 74 1014
14:47 19.7 14.7 73 1013.8
14:58 19.7 14.7 73 1013.8
15:08 19.9 14.7 72 1013.5
15:13 19.9 14.7 72 1013.5
15:23 19.9 14.7 72 1013.5
15:33 20.1 14.9 72 1013.4
15:49 20 14.8 72 1013.5
15:58 19.9 14.7 72 1013.5
16:08 20 15 73 1013.5
16:14 20.1 14.9 72 1013.5
16:25 20 14.6 71 1013.4
16:39 20.1 14.7 71 1013.3
16:49 20.1 14.9 72 1013.1
17:00 20.1 14.9 72 1013.2
17:10 20 14.8 72 1013.1
17:19 20 15 73 1013.1
17:30 20 14.8 72 1013.1
17:36 19.9 14.7 72 1013.2
17:45 19.9 14.7 72 1013.1
18:00 19.8 14.4 71 1013.2
18:11 19.7 14.3 71 1013.1
18:14 19.6 14.2 71 1013.1
18:24 19.5 14.1 71 1013.3
18:35 19.3 14.1 72 1013.5
18:44 19.2 14 72 1013.6
18:54 19.1 14.2 73 1013.6
19:04 19 14.1 73 1013.6
19:15 18.9 14.2 74 1013.6
19:25 18.7 14.2 75 1013.6
19:34 18.6 14.3 76 1013.6
19:45 18.6 14.3 76 1013.6
19:55 18.5 13.8 74 1013.5
20:05 18.4 13.5 73 1013.5
20:15 18.4 13.5 73 1013.4
20:25 18.3 13.4 73 1013.4
20:35 18.2 13.5 74 1013.4
20:45 18.2 13.5 74 1013.4
20:56 18 13.3 74 1013.5
21:06 18 13.3 74 1013.5
21:15 17.9 13.2 74 1013.5
21:25 17.8 13.1 74 1013.6
21:36 17.7 13.2 75 1013.9
21:46 17.6 13.1 75 1014
21:56 17.5 13 75 1013.9
22:06 17.4 12.9 75 1013.9
22:16 17.4 12.9 75 1013.9
22:26 17.3 12.8 75 1013.9
22:36 17.3 13 76 1013.8
22:47 17.2 12.9 76 1013.8
22:56 17.2 12.9 76 1013.8
23:06 17.1 12.8 76 1013.6
23:17 17.1 13 77 1013.8
23:27 17.1 13 77 1013.8
23:37 17.1 13 77 1013.8
23:46 17 12.9 77 1013.8
23:57 17 12.9 77 1013.8

СТАТИСТИКА ЗА ДЕНЬ

2020-07-06
TЕМПЕРАТУРА
СРЕДНЯЯ
18.1
МАКСИМАЛЬНАЯ
20.1
15:33
МИНИМАЛЬНАЯ
16.7
06:34
ДАВЛЕНИЕ
СРЕДНЯЯ
1014.5
МАКСИМАЛЬНАЯ
1017.5
00:01
МИНИМАЛЬНАЯ
1013.1
16:49
ТОЧКА РОСЫ
СРЕДНЯЯ
13.6
МАКСИМАЛЬНАЯ
15.0
12:37
МИНИМАЛЬНАЯ
12.0
06:34
ВЛАЖНОСТЬ
СРЕДНЯЯ
75
МАКСИМАЛЬНАЯ
81
11:41
МИНИМАЛЬНАЯ
71
00:01
TЕМПЕРАТУРА (°C)
МИНИМАЛЬНАЯ
16.7
МАКСИМАЛЬНАЯ
20.1
СРЕДНЯЯ
18.1
ДАВЛЕНИЕ (hpa)
МИНИМАЛЬНАЯ
1013.1
МАКСИМАЛЬНАЯ
1017.5
СРЕДНЯЯ
1014.5
УСТРОЙСТВО